Presure
109 147 160 165 157 154 162 116 149 155 127 137 145 133 153 157 136 141 119 94 142 112 121 104 112 102 87 99 98 98 97 95 100 99 104 151 163 145 143 149 163 156 161 161 165 169 164 168 164
211 214 177 161 159 154 163 156 157 152 164 156 103 156 149 107 185 150 102 144 148 104 103 114 100 100 101 93 95 95 97 102 96 123 104 122 166 159 162 166 174 180 178 161 159 159 164 168 171
207 204 85 177 157 162 157 162 150 162 154 157 159 138 124 189 144 106 138 126 152 99 95 86 102 99 100 99 99 95 101 96 102 100 102 155 153 162 126 179 143 166 177 175 169 159 165 165 166
185 209 200 220 209 160 163 159 161 167 128 165 163 157 159 190 169 149 181 179 99 121 89 93 93 92 97 101 98 100 89 100 96 93 167 152 152 139 122 189 180 150 104 167 160 160 164 172 170
89 192 207 175 141 177 91 160 166 157 105 168 157 166 161 173 178 151 166 120 115 155 99 93 95 101 96 100 96 89 100 100 96 93 96 151 101 121 94 156 132 100 99 101 115 101 107 147 165
75 87 202 187 150 215 152 163 161 170 159 167 165 162 150 154 175 178 141 130 129 155 99 93 91 96 96 98 98 88 97 96 104 95 94 164 149 99 102 116 150 136 137 96 160 95 91 100 96
86 88 91 197 94 217 104 195 106 168 167 158 165 164 161 165 91 100 127 96 129 168 98 104 96 96 146 99 104 92 98 114 101 95 96 97 115 102 100 107 98 94 94 93 104 156 96 92 91
103 91 102 140 184 101 160 199 199 168 167 152 163 169 164 164 99 97 159 88 99 92 100 95 98 95 96 96 105 97 102 99 96 92 96 111 93 105 100 103 100 99 100 95 88 90 91 91 93
82 98 76 174 86 150 138 195 139 188 172 110 165 169 163 153 159 91 113 99 110 146 116 148 99 100 95 97 102 103 106 102 108 95 94 173 138 108 97 96 97 92 90 93 90 91 97 95 94
131 144 97 93 82 157 205 197 198 209 167 175 134 126 169 163 164 138 165 101 96 115 99 101 108 96 98 99 96 97 95 100 104 107 92 103 91 92 90 91 86 90 94 94 91 95 88 89 107
152 80 127 84 97 97 199 200 188 202 199 181 172 134 162 160 112 159 111 171 107 101 102 103 100 99 98 96 99 103 101 108 138 104 104 166 102 97 106 98 90 95 95 97 97 95 95 91 100
68 78 78 82 86 89 92 79 195 202 140 188 179 169 144 158 164 118 158 96 113 100 106 111 144 136 104 99 97 98 98 108 98 107 106 100 111 103 91 91 90 89 93 101 157 101 101 103 94
182 186 92 82 80 81 86 89 198 145 191 183 126 119 142 169 169 152 161 160 93 125 159 124 164 162 89 102 110 101 96 126 133 90 109 105 86 104 133 96 89 89 79 93 89 98 91 92 97
188 184 189 150 90 93 84 93 90 89 192 182 179 175 178 174 162 160 160 159 98 107 157 161 146 150 93 141 147 96 93 130 95 122 190 124 86 92 86 151 107 81 87 96 95 90 85 92 100
201 181 189 187 170 91 79 84 88 82 88 90 192 188 175 171 170 170 164 158 152 166 171 172 169 167 171 174 102 133 94 86 140 91 98 110 144 95 99 90 93 78 102 89 101 101 93 93 99
195 140 186 190 179 138 93 96 94 88 87 89 91 90 183 178 172 171 165 168 126 170 171 157 165 160 182 88 181 118 87 101 101 76 95 105 127 139 90 87 166 111 87 103 97 94 100 100 101
103 191 175 186 181 180 137 87 93 98 96 96 97 92 92 87 132 172 75 183 138 146 172 184 188 101 101 102 92 80 189 182 121 102 86 141 139 96 92 94 93 101 99 98 100 103 99 152 203
225 125 146 154 180 106 179 180 97 91 92 96 89 83 89 88 74 84 83 92 84 113 185 87 159 182 120 110 77 83 95 94 89 88 92 91 87 96 95 102 102 99 100 104 170 193 194 201 218
213 155 152 159 150 191 179 188 66 168 176 111 89 98 101 99 88 89 88 92 96 90 84 96 95 92 87 91 97 98 98 96 96 91 91 97 98 100 101 102 103 200 192 187 192 197 203 226 224
216 164 182 166 162 143 154 184 150 181 181 186 179 178 173 77 90 93 103 101 97 100 98 95 94 99 96 95 123 139 102 100 100 122 122 177 173 180 184 192 188 201 183 180 197 209 224 299 270
211 158 192 176 146 155 156 146 154 160 180 192 177 178 179 180 126 180 185 170 178 178 176 178 183 182 161 159 143 167 163 171 177 180 178 177 178 188 195 176 202 197 186 199 204 233 183 220 234
208 224 195 162 157 148 145 162 155 153 148 156 156 172 186 178 170 170 171 168 177 162 161 158 155 169 179 167 161 169 176 170 170 167 168 171 186 189 203 202 202 174 203 194 226 294 299 229 252
212 214 204 177 185 195 151 181 148 147 142 144 147 153 158 155 159 159 156 153 153 166 155 177 177 157 158 166 179 162 174 176 181 179 182 180 191 195 195 190 192 200 205 228 208 304 173 232 259
219 216 199 200 182 197 193 175 167 159 169 162 149 151 153 153 154 156 154 153 158 163 169 162 168 181 177 157 158 168 179 169 172 171 188 188 168 195 168 148 156 181 232 267 318 258 226 255 248
207 223 192 203 186 187 176 188 193 176 173 170 176 184 166 152 169 166 167 177 155 163 159 158 159 156 186 175 173 169 174 181 183 189 198 154 210 160 200 140 198 242 255 318 279 199 262 238 304
212 218 219 207 198 192 142 178 178 168 174 175 174 167 167 164 167 171 169 163 172 176 169 167 160 173 164 179 176 132 179 182 193 181 154 207 180 143 153 188 233 254 297 285 224 249 253 226 315
220 212 214 203 205 201 193 182 178 176 177 179 178 170 168 172 175 163 169 172 197 179 176 175 178 178 181 178 177 183 195 183 196 182 204 151 166 202 174 244 258 209 279 230 240 243 237 216 206
223 213 214 201 195 204 204 196 147 184 170 159 186 198 180 179 180 182 181 180 179 181 173 178 182 172 179 182 186 199 173 185 179 164 175 176 214 232 246 299 307 230 234 259 234 247 227 215 204
213 220 209 205 208 201 206 204 200 198 189 182 189 188 189 189 187 185 186 182 182 181 180 183 188 194 191 191 175 183 201 172 181 156 220 171 226 260 324 259 278 328 263 234 229 244 221 207 202
225 206 206 213 210 204 198 202 205 205 205 197 195 195 191 193 189 158 190 188 187 189 191 192 190 192 200 199 199 199 200 157 192 232 240 175 184 296 225 268 259 314 263 244 239 235 221 218 210
Wind_Speed
26 58 65 64 62 60 60 31 48 48 34 33 38 35 39 39 32 33 26 15 29 19 21 15 18 11 5 5 4 5 6 4 9 10 14 21 22 19 22 24 25 26 25 24 26 27 28 30 30
57 56 64 64 65 62 64 58 55 51 51 44 25 38 38 24 44 38 25 32 32 17 17 22 11 9 8 2 4 4 7 9 7 17 16 22 25 22 25 25 25 26 27 28 27 27 30 31 32
57 57 16 59 65 70 61 59 53 58 47 48 47 37 30 45 38 26 32 30 34 14 13 6 14 9 9 9 9 5 11 6 14 12 15 30 27 27 21 29 23 27 28 29 30 29 31 32 32
54 54 56 49 52 72 63 60 62 61 34 52 49 46 43 46 47 38 47 46 12 21 10 12 9 8 10 12 8 12 3 13 7 5 30 27 30 24 23 32 32 27 10 32 31 32 31 32 33
16 60 53 49 34 74 13 65 69 56 23 53 50 49 45 46 48 41 44 31 25 39 18 13 13 14 10 13 9 1 16 17 11 7 12 29 16 20 9 30 19 9 8 9 13 10 11 25 33
9 15 52 58 38 61 44 72 70 67 51 55 54 49 43 41 47 49 38 36 31 39 18 15 14 14 13 14 16 4 14 14 22 13 12 36 31 14 15 20 29 23 23 10 35 10 9 12 12
20 16 6 58 28 57 34 65 34 66 56 52 55 51 48 45 16 25 34 20 33 43 19 24 20 18 31 17 23 11 20 26 21 14 15 17 26 22 17 20 10 9 10 10 12 35 12 10 9
31 21 23 31 64 16 44 63 63 67 61 49 55 54 51 47 28 22 44 12 24 17 22 21 23 20 21 19 27 19 25 23 19 11 21 30 14 30 20 22 16 15 15 12 13 11 11 11 11
18 38 9 53 16 49 37 63 41 55 65 32 59 57 51 45 47 18 27 26 30 38 29 41 26 26 22 25 25 27 29 27 33 19 17 43 35 30 19 17 17 10 9 16 12 13 20 18 19
37 49 31 23 13 48 54 63 55 54 50 61 46 39 55 52 49 42 50 31 25 31 24 27 27 25 26 26 22 24 19 27 31 35 17 33 16 18 13 13 11 11 21 15 17 20 12 16 31
49 9 43 22 25 30 56 61 57 53 54 62 66 46 52 50 32 48 38 47 34 30 31 33 30 29 29 26 28 32 30 31 37 35 35 46 35 28 39 32 18 26 29 33 33 25 28 20 38
10 12 22 27 29 29 27 15 55 51 31 60 65 60 43 49 52 34 49 27 40 29 36 41 41 39 34 32 30 30 27 34 28 37 41 33 41 39 26 26 24 20 27 44 47 42 44 50 30
73 78 38 27 20 16 24 31 50 43 55 63 36 34 44 54 53 47 51 49 23 40 47 38 49 48 22 35 38 34 24 44 38 20 47 41 20 34 40 36 24 23 18 34 28 46 31 34 49
79 73 77 58 42 29 33 43 34 26 58 63 59 60 57 54 54 54 51 51 29 34 50 51 47 47 28 46 44 29 26 47 29 43 52 40 23 31 26 52 48 15 33 44 45 36 27 39 56
84 68 74 66 58 38 24 21 29 24 30 26 55 56 57 55 56 56 55 52 50 54 56 55 55 55 57 58 42 45 29 24 38 23 39 45 50 39 41 37 24 25 53 36 56 58 45 47 64
72 38 68 67 63 46 50 55 43 36 30 29 34 31 55 55 57 57 56 54 47 57 56 53 56 47 55 24 49 32 26 45 46 13 23 40 46 50 46 32 59 55 37 59 57 52 65 67 67
21 67 55 66 62 59 58 25 38 45 42 37 38 37 36 31 46 57 4 52 42 51 53 53 52 44 43 45 36 19 52 48 35 41 40 53 54 54 51 54 53 61 62 63 66 70 69 72 75
73 40 51 50 65 23 59 57 49 41 40 44 41 28 39 38 8 28 29 40 28 38 51 34 46 50 46 39 20 33 48 48 45 46 52 50 44 60 57 65 66 66 68 72 73 72 72 74 79
78 58 50 52 40 69 50 64 6 46 50 50 42 50 53 52 36 40 36 45 48 40 33 49 50 48 43 48 54 55 55 54 56 53 54 62 65 67 68 70 72 75 73 74 74 75 76 84 80
86 58 70 56 45 34 36 61 41 54 52 53 51 49 49 12 38 44 57 56 53 56 56 56 54 58 57 55 58 56 61 62 63 66 69 70 70 74 75 77 75 77 74 67 76 79 84 79 70
77 54 71 58 33 37 39 35 32 30 47 57 48 48 49 52 31 51 51 46 50 51 51 52 54 55 47 49 57 54 56 62 68 70 72 72 75 79 79 75 79 77 74 79 79 87 66 68 65
72 80 69 51 45 39 37 43 36 34 33 29 30 42 56 51 42 39 40 38 48 43 44 43 48 49 57 52 56 61 65 64 66 68 71 73 77 79 79 79 79 72 82 77 90 84 69 65 65
74 74 72 58 59 63 41 56 35 35 42 41 39 39 38 37 37 36 40 44 45 44 47 55 58 54 56 58 68 61 71 74 77 77 78 78 81 80 81 78 77 79 81 89 75 66 68 66 63
75 76 70 77 59 64 57 46 41 40 50 50 45 43 44 44 43 43 45 46 46 45 52 51 56 67 69 62 64 70 75 74 76 76 80 81 72 81 72 62 58 73 89 87 66 64 64 58 60
62 77 66 75 51 53 44 54 63 48 50 51 53 60 48 46 55 47 48 58 49 53 53 56 58 62 75 73 74 73 77 79 80 81 80 64 81 60 82 61 80 88 84 68 57 66 56 52 49
65 72 76 67 61 59 42 47 54 48 53 56 54 49 50 48 50 54 53 52 60 65 65 63 64 68 69 75 74 56 78 76 81 80 64 83 75 60 66 74 85 86 75 51 61 52 48 46 33
67 65 68 62 64 64 56 55 57 55 55 58 57 52 52 56 60 51 59 63 70 68 70 71 72 74 73 71 74 79 79 81 82 79 82 63 63 85 69 85 86 68 54 61 51 48 41 41 46
68 61 65 57 54 60 59 60 48 57 55 54 62 64 62 62 64 66 68 69 69 70 68 73 76 72 76 78 77 81 78 82 72 63 74 70 87 86 87 81 67 63 61 45 51 41 37 38 44
58 65 60 59 62 55 58 60 61 63 61 57 61 62 65 67 68 69 72 71 73 75 76 78 79 79 80 82 73 81 85 68 78 62 90 69 85 88 68 65 55 42 48 54 51 37 36 39 42
60 55 53 61 60 55 51 56 60 62 64 64 65 66 66 69 70 62 74 75 76 78 80 80 81 82 84 86 86 87 89 62 83 89 91 70 70 64 64 62 54 36 37 43 40 34 34 35 39
Wind_Direction
219 239 237 236 240 242 241 224 245 244 222 232 238 232 239 242 231 237 220 211 249 212 209 207 199 200 147 235 271 297 309 351 339 348 338 298 293 303 303 301 284 289 281 276 273 272 273 270 267
235 234 230 236 239 240 240 239 242 244 243 241 215 240 240 223 246 242 211 242 251 212 210 206 214 216 223 238 277 305 314 320 342 317 332 317 292 295 288 287 280 276 268 280 279 278 275 270 270
231 232 213 224 239 241 239 239 240 241 235 240 241 227 228 243 237 225 238 223 252 228 214 183 219 222 230 252 268 295 295 320 313 335 331 291 291 291 311 283 299 284 277 274 274 281 275 276 276
228 230 230 231 228 240 239 241 242 239 215 239 241 240 244 240 248 242 252 258 232 249 229 231 225 244 247 251 283 284 72 307 333 359 286 288 292 299 311 287 285 293 347 280 284 283 279 278 277
236 225 226 227 224 231 202 239 239 238 230 237 241 242 245 245 247 242 252 225 229 252 229 240 246 237 255 256 274 273 293 303 317 341 337 289 326 304 323 295 300 334 343 346 314 344 327 283 275
199 231 223 226 221 231 226 236 241 239 238 238 239 241 238 243 250 251 239 233 241 255 238 246 261 255 262 266 273 257 295 303 294 311 323 288 293 314 313 308 291 295 295 334 288 338 333 335 344
214 214 181 223 214 230 217 225 230 240 235 239 241 242 244 245 221 213 229 228 238 258 235 236 249 259 274 266 260 271 285 283 292 305 310 315 302 309 307 307 301 308 310 317 316 293 330 317 324
229 216 236 227 229 237 218 225 226 239 234 237 242 239 241 243 223 224 246 246 241 252 239 246 247 255 262 270 263 277 275 284 297 302 307 295 307 301 303 305 305 305 301 300 281 284 283 286 303
225 229 218 215 251 224 213 224 219 227 234 231 241 239 239 239 242 233 243 238 236 260 250 258 249 251 259 263 266 272 274 282 277 293 300 286 293 298 303 303 308 291 297 294 300 304 309 312 307
222 219 224 198 233 220 223 226 220 225 225 230 234 235 237 240 244 241 249 238 246 252 248 246 257 259 262 268 277 281 284 285 281 280 290 287 294 291 291 299 281 293 308 296 299 310 290 295 307
216 207 207 218 200 217 222 227 221 223 224 227 236 233 237 241 233 247 235 255 242 250 253 253 258 264 265 273 277 274 278 285 286 285 282 285 284 289 285 295 294 308 303 303 308 311 310 303 310
223 173 236 224 229 222 234 261 220 222 225 225 231 238 239 239 242 242 249 247 244 251 251 254 266 270 259 271 276 278 282 284 287 281 283 284 284 285 302 304 309 296 302 297 287 308 307 307 302
210 217 217 223 247 226 242 244 218 224 224 228 237 241 242 238 242 245 249 254 255 254 263 264 268 271 274 268 271 273 280 281 283 286 279 281 299 285 293 294 297 300 255 307 311 312 298 296 312
210 216 218 224 235 225 242 242 235 235 224 229 231 236 238 238 243 246 250 253 257 258 263 266 267 272 271 276 279 281 281 281 285 284 290 286 298 287 303 288 285 255 305 309 310 304 264 298 307
210 214 217 218 223 231 225 233 232 248 249 241 230 233 238 241 243 246 249 255 259 261 264 267 271 274 276 279 273 280 284 295 292 297 286 285 288 294 296 298 279 267 295 302 301 299 302 300 305
209 230 217 218 221 230 229 236 233 240 247 245 246 253 237 240 245 248 254 256 258 261 265 267 268 274 274 283 277 287 293 279 281 280 288 292 294 291 297 285 300 302 293 293 300 300 302 298 295
230 211 219 221 223 230 231 244 237 237 243 245 243 245 247 256 251 251 280 252 264 257 262 265 268 270 272 272 282 298 283 286 285 291 296 292 296 292 297 298 301 294 297 299 299 298 295 295 299
204 224 230 230 221 231 231 228 240 247 248 246 248 250 250 252 300 269 276 267 286 272 262 283 270 271 276 285 297 298 284 288 292 292 291 292 294 292 295 291 293 298 297 295 297 300 302 301 301
202 222 229 228 216 222 228 225 339 235 237 247 250 250 250 253 258 261 266 266 262 273 282 272 274 279 282 281 280 280 282 284 284 287 289 286 288 288 290 291 291 297 298 301 301 301 302 304 302
202 223 213 225 218 237 217 228 234 234 236 233 238 239 245 253 261 263 263 266 269 268 270 272 275 275 277 280 281 284 283 285 285 288 289 295 297 298 297 297 297 297 299 301 303 305 306 308 303
207 229 213 222 234 220 223 239 221 223 237 233 242 246 245 247 255 254 254 262 262 265 269 273 275 277 274 277 281 287 285 290 292 291 293 295 295 297 295 295 297 297 300 303 306 305 299 300 302
209 209 213 234 234 231 234 229 228 225 234 230 236 245 245 251 258 260 262 260 265 263 265 270 267 282 280 285 281 288 289 289 290 289 291 292 295 295 295 296 296 298 303 306 305 313 309 304 307
208 211 213 225 223 221 231 229 239 235 239 239 239 241 246 244 250 255 251 252 257 273 265 278 280 275 278 287 282 285 289 287 287 289 291 293 294 294 294 295 300 303 306 304 303 309 297 307 311
209 210 213 218 223 221 223 232 234 232 239 241 242 243 247 250 251 254 256 259 266 276 274 280 283 277 281 277 279 283 285 287 288 288 290 290 289 294 294 295 292 301 303 311 310 308 307 313 312
209 210 215 220 228 225 231 230 233 245 246 249 250 249 256 253 258 268 273 273 265 276 272 273 275 273 275 280 282 284 286 287 288 287 289 288 292 293 297 295 299 303 307 308 306 303 313 312 315
212 214 218 223 227 227 239 237 241 245 249 252 255 256 260 263 270 275 275 273 277 273 277 277 274 280 274 282 282 285 284 286 286 283 287 290 292 292 294 295 303 305 307 303 302 309 313 312 318
215 218 221 225 227 230 232 236 241 247 251 254 258 261 264 269 270 267 272 275 269 275 277 279 279 280 283 281 281 283 285 280 285 286 288 290 293 298 294 302 304 300 302 299 302 308 305 305 309
216 220 224 230 234 234 235 238 248 247 253 256 258 256 264 266 269 271 272 274 275 278 274 278 280 274 277 278 282 282 279 282 286 290 290 295 295 298 303 303 299 297 297 295 299 303 297 299 305
220 221 227 232 236 241 241 243 248 250 254 260 262 263 265 267 269 271 272 274 275 275 276 275 277 278 277 278 279 277 280 290 285 293 290 296 296 301 301 301 298 288 286 291 296 295 287 294 301
217 228 233 234 238 243 248 250 254 256 257 261 264 265 267 267 268 269 269 270 271 272 273 274 273 275 275 275 276 277 279 288 289 289 292 295 295 296 297 302 301 286 276 281 288 285 284 290 293